When you browse on this site, cookies collect data to enhance your experience and personalize the content and advertising you see.
Visit our Privacy Policy to learn more. By continuing to use the site, you agree to this use of cookies and data.
  • In Hungary
  • List of Countries
  • For 7 days
  • Water Temperature
  • Satellite Maps
  • Weather Map
  • News
  • Weather Widgets
  • user-avatar
    Login

    Hourly Weather Assen

    Today, 19 November, Monday

    Time Temperature Precipitation Wind Pressure Humidity
    00:00 +2°C° 0 mm 5 mps 770 mmHg 85%
    01:00 +2°C° 0 mm 5 mps 769 mmHg 85%
    02:00 +3°C° 0 mm 6 mps 769 mmHg 84%
    03:00 +3°C° 0 mm 6 mps 769 mmHg 84%
    04:00 +3°C° 0 mm 6 mps 768 mmHg 83%
    05:00 +3°C° 0 mm 7 mps 768 mmHg 83%
    06:00 +3°C° 0 mm 7 mps 767 mmHg 83%
    07:00 +2°C° 0.1 mm 8 mps 767 mmHg 81%
    08:00 +4°C° 0.1 mm 8 mps 767 mmHg 79%
    09:00 +3°C° 0.1 mm 9 mps 767 mmHg 76%
    10:00 +5°C° 0.1 mm 9 mps 766 mmHg 73%
    11:00 +5°C° 0.1 mm 9 mps 766 mmHg 69%
    12:00 +5°C° 0.1 mm 9 mps 766 mmHg 66%
    13:00 +5°C° 0.1 mm 8 mps 765 mmHg 66%
    14:00 +4°C° 0.1 mm 8 mps 765 mmHg 67%
    15:00 +4°C° 0.1 mm 7 mps 765 mmHg 68%
    16:00 +3°C° 0 mm 7 mps 765 mmHg 69%
    17:00 +3°C° 0 mm 7 mps 765 mmHg 70%
    18:00 +2°C° 0 mm 7 mps 764 mmHg 71%
    19:00 +1°C° 0 mm 8 mps 764 mmHg 71%
    20:00 +1°C° 0 mm 8 mps 764 mmHg 71%
    21:00 0°C° 0 mm 8 mps 764 mmHg 71%
    22:00 0°C° 0 mm 8 mps 764 mmHg 73%
    23:00 0°C° 0 mm 8 mps 764 mmHg 74%

    Tomorrow, 20 November, Tuesday

    Time Temperature Precipitation Wind Pressure Humidity
    00:00 0°C° 0 mm 8 mps 764 mmHg 75%
    01:00 0°C° 0 mm 8 mps 763 mmHg 74%
    02:00 0°C° 0 mm 8 mps 763 mmHg 72%
    03:00 0°C° 0 mm 9 mps 762 mmHg 71%
    04:00 0°C° 0 mm 9 mps 762 mmHg 71%
    05:00 0°C° 0 mm 9 mps 762 mmHg 71%
    06:00 0°C° 0 mm 9 mps 761 mmHg 70%
    07:00 0°C° 0 mm 10 mps 761 mmHg 69%
    08:00 0°C° 0 mm 10 mps 761 mmHg 68%
    09:00 +1°C° 0 mm 10 mps 760 mmHg 67%
    10:00 +1°C° 0 mm 10 mps 760 mmHg 67%
    11:00 +1°C° 0 mm 10 mps 760 mmHg 66%
    12:00 +1°C° 0 mm 9 mps 759 mmHg 65%
    13:00 +1°C° 0.1 mm 9 mps 759 mmHg 67%
    14:00 +1°C° 0.1 mm 9 mps 759 mmHg 68%
    15:00 0°C° 0.1 mm 9 mps 759 mmHg 70%
    16:00 0°C° 0.3 mm 9 mps 759 mmHg 73%
    17:00 0°C° 0.3 mm 9 mps 758 mmHg 77%
    18:00 0°C° 0.3 mm 8 mps 758 mmHg 80%
    19:00 0°C° 0.2 mm 8 mps 759 mmHg 81%
    20:00 -1°C° 0.2 mm 8 mps 759 mmHg 82%
    21:00 -1°C° 0.2 mm 8 mps 759 mmHg 83%
    22:00 -1°C° 0 mm 8 mps 759 mmHg 84%
    23:00 -1°C° 0 mm 8 mps 759 mmHg 85%

    Day after tomorrow, 21 November, Wednesday

    Time Temperature Precipitation Wind Pressure Humidity
    00:00 -1°C° 0 mm 7 mps 759 mmHg 86%
    01:00 -1°C° 0 mm 7 mps 759 mmHg 87%
    02:00 -1°C° 0 mm 7 mps 759 mmHg 88%
    03:00 -1°C° 0 mm 7 mps 759 mmHg 89%
    04:00 -1°C° 0 mm 8 mps 760 mmHg 88%
    05:00 -1°C° 0 mm 8 mps 760 mmHg 88%
    06:00 -1°C° 0 mm 8 mps 760 mmHg 88%
    07:00 -1°C° 0 mm 8 mps 761 mmHg 87%
    08:00 -1°C° 0 mm 8 mps 761 mmHg 86%
    09:00 -1°C° 0 mm 7 mps 762 mmHg 84%
    10:00 0°C° 0 mm 7 mps 762 mmHg 83%
    11:00 0°C° 0 mm 7 mps 763 mmHg 81%
    12:00 +2°C° 0 mm 6 mps 763 mmHg 79%
    13:00 +2°C° 0 mm 6 mps 763 mmHg 81%
    14:00 +1°C° 0 mm 6 mps 763 mmHg 83%
    15:00 +1°C° 0 mm 6 mps 764 mmHg 85%
    16:00 -1°C° 0 mm 6 mps 764 mmHg 86%
    17:00 -1°C° 0 mm 6 mps 764 mmHg 88%
    18:00 -2°C° 0 mm 6 mps 765 mmHg 90%
    19:00 -1°C° 0 mm 6 mps 765 mmHg 89%
    20:00 -1°C° 0 mm 6 mps 765 mmHg 87%
    21:00 -1°C° 0 mm 6 mps 766 mmHg 86%
    22:00 -1°C° 0 mm 6 mps 766 mmHg 86%
    23:00 0°C° 0 mm 5 mps 766 mmHg 86%

    22 November, Thursday

    Time Temperature Precipitation Wind Pressure Humidity
    00:00 0°C° 0 mm 5 mps 766 mmHg 86%
    01:00 0°C° 0 mm 5 mps 766 mmHg 87%
    02:00 0°C° 0 mm 5 mps 766 mmHg 88%
    03:00 -1°C° 0 mm 5 mps 766 mmHg 89%
    04:00 -1°C° 0 mm 5 mps 766 mmHg 89%
    05:00 -1°C° 0 mm 5 mps 766 mmHg 89%
    06:00 -1°C° 0 mm 5 mps 766 mmHg 90%
    07:00 -1°C° 0 mm 5 mps 766 mmHg 88%
    08:00 -1°C° 0 mm 5 mps 766 mmHg 87%
    09:00 0°C° 0 mm 5 mps 766 mmHg 86%
    10:00 0°C° 0 mm 5 mps 766 mmHg 84%
    11:00 +1°C° 0 mm 5 mps 766 mmHg 82%
    12:00 +2°C° 0 mm 5 mps 766 mmHg 80%
    13:00 +1°C° 0 mm 5 mps 766 mmHg 81%
    14:00 +1°C° 0 mm 4 mps 766 mmHg 82%
    15:00 +1°C° 0 mm 4 mps 766 mmHg 83%
    16:00 +1°C° 0 mm 4 mps 766 mmHg 84%
    17:00 +1°C° 0 mm 4 mps 766 mmHg 86%
    18:00 0°C° 0 mm 4 mps 766 mmHg 87%
    19:00 0°C° 0 mm 4 mps 766 mmHg 88%
    20:00 0°C° 0 mm 4 mps 766 mmHg 89%
    21:00 +1°C° 0 mm 3 mps 766 mmHg 90%
    22:00 +1°C° 0 mm 3 mps 767 mmHg 91%
    23:00 +1°C° 0 mm 3 mps 767 mmHg 92%

    23 November, Friday

    Time Temperature Precipitation Wind Pressure Humidity
    00:00 +1°C° 0 mm 3 mps 767 mmHg 93%
    01:00 +1°C° 0 mm 3 mps 767 mmHg 94%
    02:00 0°C° 0 mm 3 mps 767 mmHg 94%
    03:00 0°C° 0 mm 3 mps 767 mmHg 94%
    04:00 0°C° 0 mm 3 mps 767 mmHg 95%
    05:00 +1°C° 0 mm 2 mps 767 mmHg 95%
    06:00 +1°C° 0 mm 2 mps 767 mmHg 95%
    07:00 +1°C° 0 mm 2 mps 767 mmHg 93%
    08:00 +2°C° 0 mm 2 mps 767 mmHg 92%
    09:00 +2°C° 0 mm 2 mps 768 mmHg 91%
    10:00 +3°C° 0 mm 2 mps 767 mmHg 87%
    11:00 +5°C° 0 mm 2 mps 767 mmHg 83%
    12:00 +6°C° 0 mm 2 mps 767 mmHg 79%
    13:00 +5°C° 0 mm 2 mps 767 mmHg 82%
    14:00 +5°C° 0 mm 2 mps 767 mmHg 85%
    15:00 +4°C° 0 mm 2 mps 767 mmHg 87%
    16:00 +4°C° 0 mm 2 mps 767 mmHg 88%
    17:00 +3°C° 0 mm 2 mps 766 mmHg 89%
    18:00 +2°C° 0 mm 2 mps 766 mmHg 91%
    19:00 +1°C° 0 mm 3 mps 766 mmHg 90%
    20:00 +1°C° 0 mm 3 mps 766 mmHg 90%
    21:00 +1°C° 0 mm 3 mps 766 mmHg 90%
    22:00 +1°C° 0 mm 3 mps 765 mmHg 90%
    23:00 +1°C° 0 mm 3 mps 765 mmHg 89%

    24 November, Saturday

    Time Temperature Precipitation Wind Pressure Humidity
    00:00 +1°C° 0 mm 3 mps 765 mmHg 89%
    01:00 +1°C° 0 mm 3 mps 764 mmHg 88%
    02:00 +1°C° 0 mm 3 mps 764 mmHg 87%
    03:00 +1°C° 0 mm 4 mps 763 mmHg 86%
    04:00 +1°C° 0.1 mm 4 mps 763 mmHg 86%
    05:00 +1°C° 0.1 mm 4 mps 762 mmHg 86%
    06:00 +1°C° 0.1 mm 4 mps 762 mmHg 86%
    07:00 +2°C° 0.1 mm 5 mps 762 mmHg 86%
    08:00 +2°C° 0.1 mm 5 mps 761 mmHg 86%
    09:00 +2°C° 0.1 mm 6 mps 761 mmHg 85%
    10:00 +3°C° 0.5 mm 6 mps 760 mmHg 86%
    11:00 +3°C° 0.5 mm 6 mps 760 mmHg 87%
    12:00 +3°C° 0.5 mm 6 mps 759 mmHg 88%
    13:00 +3°C° 1.1 mm 6 mps 758 mmHg 90%
    14:00 +3°C° 1.1 mm 6 mps 758 mmHg 91%
    15:00 +4°C° 1.1 mm 6 mps 757 mmHg 93%
    16:00 +4°C° 0.8 mm 6 mps 756 mmHg 92%
    17:00 +5°C° 0.8 mm 6 mps 756 mmHg 92%
    18:00 +7°C° 0.8 mm 6 mps 756 mmHg 91%
    19:00 +7°C° 0 mm 6 mps 756 mmHg 90%
    20:00 +5°C° 0 mm 6 mps 756 mmHg 89%
    21:00 +5°C° 0 mm 6 mps 755 mmHg 88%
    22:00 +5°C° 0.1 mm 7 mps 755 mmHg 87%
    23:00 +5°C° 0.1 mm 7 mps 755 mmHg 87%
    Show more